This is the latest recevied weather packets stored in our database for station/object W8KHW. If no packets are shown the sender has not sent any weather packets the latest 10 day(s).
| Time | Temp. | Humidity | Pressure | Rain* | Wind** | Luminosity | Snow |
|---|---|---|---|---|---|---|---|
| 1777827428 | 15.56° C | 44% | 1018 hPa | 0 mm | - | - | - |
| 1777826928 | 15° C | 40% | 1018.3 hPa | 0 mm | - | - | - |
| 1777826428 | 17.22° C | 44% | 1018.3 hPa | 0 mm | - | - | - |
| 1777825928 | 15° C | 43% | 1018.2 hPa | 0 mm | - | - | - |
| 1777825427 | 15° C | 42% | 1018.2 hPa | 0 mm | - | - | - |
| 1777824927 | 15° C | 42% | 1018.3 hPa | 0 mm | - | - | - |
| 1777824427 | 15° C | 41% | 1018.3 hPa | 0 mm | - | - | - |
| 1777823927 | 14.44° C | 43% | 1018.3 hPa | 0 mm | - | - | - |
| 1777823427 | 14.44° C | 46% | 1018.4 hPa | 0 mm | - | - | - |
| 1777822926 | 13.89° C | 45% | 1018.6 hPa | 0 mm | - | - | - |
| 1777822426 | 14.44° C | 48% | 1018.9 hPa | 0 mm | - | - | - |
| 1777821926 | 13.33° C | 50% | 1018.7 hPa | 0 mm | - | - | - |
| 1777821426 | 13.33° C | 47% | 1018.8 hPa | 0 mm | - | - | - |
| 1777820925 | 13.33° C | 48% | 1018.8 hPa | 0 mm | - | - | - |
| 1777820425 | 13.33° C | 50% | 1018.7 hPa | 0 mm | - | - | - |
| 1777819925 | 13.33° C | 47% | 1018.8 hPa | 0 mm | - | - | - |
| 1777819425 | 12.78° C | 53% | 1018.8 hPa | 0 mm | - | - | - |
| 1777818924 | 12.78° C | 54% | 1018.8 hPa | 0 mm | - | - | - |
| 1777818424 | 12.22° C | 56% | 1019 hPa | 0 mm | - | - | - |
| 1777817924 | 11.67° C | 52% | 1018.9 hPa | 0 mm | - | - | - |
| 1777817424 | 12.22° C | 56% | 1019 hPa | 0 mm | - | - | - |
| 1777816923 | 11.67° C | 57% | 1019 hPa | 0 mm | - | - | - |
| 1777816423 | 10° C | 56% | 1019.2 hPa | 0 mm | - | - | - |
| 1777815923 | 10° C | 61% | 1019.4 hPa | 0 mm | - | - | - |
| 1777815423 | 10.56° C | 58% | 1019.1 hPa | 0 mm | - | - | - |
* Rain latest hour (hover to see other rain measurements)
** Current wind speed in m/s (hover to see current wind gust speed)